Location: Tierra del Sol
(32.6128°N, 116.3319°W)
Time: 08:16:45
(UTC-07:00)

Amateur Radio Satellites - All Passes

Search period start: 24 April 2017 07:46
Search period end: 25 April 2017 07:46
Location: Tierra del Sol, 32.6128°N, 116.3319°W

Satellite Date Start Highest point End Downlink Frequencies (MHz)
Time Altitude Azimuth
SEEDS 24 Apr 07:51:07 07:54:47 27° 97° (E) 07:58:24 437.485
KAITUO 1B 24 Apr 07:51:09 07:53:54 20° 289° (WNW) 07:56:40 145.475/437.950
XW-2A 24 Apr 07:54:09 07:57:25 51° 100° (E) 08:00:41 145.665 - 145.685
UWE-3 24 Apr 07:56:27 07:57:52 11° 93° (E) 07:59:16 435.000/436.395/437.385
CUTE-I 24 Apr 08:00:44 08:05:11 28° 291° (WNW) 08:09:38 437.470
CUBEBUG 2 24 Apr 08:01:50 08:05:15 24° 97° (E) 08:08:41 437.445
HO-68 24 Apr 08:08:00 08:15:10 67° 103° (ESE) 08:22:18 435.675
ZACube-1 24 Apr 08:56:04 08:59:57 35° 98° (E) 09:03:53 437.345
Tancredo 1 24 Apr 08:57:48 09:00:50 52° 317° (NW) 09:03:53 437.200
ISS 24 Apr 08:58:35 09:01:48 74° 315° (NW) 09:05:03 437.550
CUTE 1.7 + AOD 2 24 Apr 09:01:31 09:04:58 24° 289° (WNW) 09:08:26 437.475
AO-73 24 Apr 09:04:32 09:08:31 40° 99° (E) 09:12:34 145.935
AAUSAT CUBESAT 2 24 Apr 09:06:59 09:11:10 73° 284° (WNW) 09:15:19 437.432
Oscar 11 24 Apr 09:23:26 09:27:43 58° 100° (E) 09:31:59 .
SEEDS 24 Apr 09:27:12 09:30:14 19° 290° (WNW) 09:33:15 437.485
TIGRISAT 24 Apr 09:28:09 09:31:48 26° 72° (ENE) 09:35:24 435.000
UWE-3 24 Apr 09:30:29 09:34:27 42° 285° (WNW) 09:38:28 435.000/436.395/437.385
CUBEBUG 2 24 Apr 09:38:38 09:41:42 20° 289° (WNW) 09:44:48 437.445
RS-15 24 Apr 09:45:52 09:56:22 33° 315° (NW) 10:07:09 29.354- 29.394
UNISAT 6 24 Apr 09:47:50 09:52:07 48° 75° (ENE) 09:56:19 437.425
FO-29 24 Apr 09:55:38 10:02:03 51° 73° (ENE) 10:07:45 435.910
HO-68 24 Apr 09:57:18 10:02:11 20° 298° (WNW) 10:07:05 435.675
OBJECT BX 24 Apr 10:03:05 10:06:20 30° 98° (E) 10:09:35 145.990 - 145.960
PRISM 24 Apr 10:04:55 10:08:57 54° 259° (W) 10:13:02 437.425
O/OREOS (USA 219) 24 Apr 10:09:07 10:13:10 32° 103° (ESE) 10:17:15 437.305
DELFI C3 24 Apr 10:15:37 10:19:37 66° 101° (E) 10:23:34 145.870
ZACube-1 24 Apr 10:33:32 10:35:55 15° 291° (WNW) 10:38:18 437.345
QB50P2 24 Apr 10:41:25 10:43:16 13° 67° (ENE) 10:45:06 145.880/145.840
AO-73 24 Apr 10:42:24 10:44:23 13° 291° (WNW) 10:46:22 145.935
AIST 2D 24 Apr 10:42:53 10:45:23 19° 72° (ENE) 10:47:54 435.315
NANOSAT C BR1 24 Apr 11:04:42 11:07:47 20° 70° (ENE) 11:10:52 145.865
TIGRISAT 24 Apr 11:04:59 11:08:23 22° 264° (W) 11:11:46 435.000
LO-87 24 Apr 11:15:52 11:19:02 30° 98° (E) 11:22:10 145.935 - 145.965
UNISAT 6 24 Apr 11:27:39 11:28:59 11° 267° (W) 11:30:19 437.425
EO-79 24 Apr 11:29:41 11:33:43 45° 74° (ENE) 11:37:45 145.935-145.965
DUCHIFAT 1 24 Apr 11:34:57 11:38:55 42° 74° (ENE) 11:42:52 145.980
OBJECT BX 24 Apr 11:38:06 11:39:42 12° 291° (WNW) 11:41:17 145.990 - 145.960
FO-29 24 Apr 11:42:24 11:47:08 20° 263° (W) 11:51:33 435.910
PCSat 24 Apr 11:48:25 11:53:10 30° 57° (ENE) 11:57:53 145.827
O/OREOS (USA 219) 24 Apr 11:49:17 11:52:35 19° 298° (WNW) 11:55:55 437.305
ESTCUBE 1 24 Apr 11:58:17 12:02:45 56° 100° (E) 12:07:13 437.505/2401.250
POLYITAN 1 24 Apr 12:08:00 12:12:09 57° 259° (W) 12:16:19 437.675
SPROUT 24 Apr 12:10:31 12:13:14 16° 95° (E) 12:15:56 437.525
RS-15 24 Apr 12:10:59 12:14:44 12° 348° (NNW) 12:18:30 29.354- 29.394
Oscar 19 24 Apr 12:11:33 12:13:37 12° 64° (ENE) 12:15:40 437.125/150
QB50P2 24 Apr 12:14:37 12:18:38 42° 260° (W) 12:22:40 145.880/145.840
AIST 2D 24 Apr 12:16:09 12:18:28 17° 265° (W) 12:20:49 435.315
VELOX 1 24 Apr 12:23:27 12:27:10 26° 97° (E) 12:30:51 145.980
NANOSAT C BR1 24 Apr 12:39:47 12:43:18 25° 263° (W) 12:46:48 145.865
BUGSAT 1 24 Apr 12:47:05 12:51:16 83° 258° (WSW) 12:55:25 437.445
LO-87 24 Apr 12:50:51 12:52:08 12° 291° (WNW) 12:53:25 145.935 - 145.965
AO-85 24 Apr 12:53:01 12:57:27 72° 116° (ESE) 13:01:34 145.980
UKube-1 24 Apr 12:57:11 12:59:35 15° 94° (E) 13:01:59 .
EO-79 24 Apr 13:08:26 13:09:38 11° 267° (W) 13:10:51 145.935-145.965
DUCHIFAT 1 24 Apr 13:13:09 13:14:43 12° 267° (W) 13:16:17 145.980
BEESAT 3 24 Apr 13:20:26 13:23:13 19° 110° (ESE) 13:26:03 437.485
DX 1 24 Apr 13:23:18 13:27:31 47° 100° (E) 13:31:41 434.975-435.025
Gurwin Techsat 1B 24 Apr 13:28:35 13:33:36 44° 73° (ENE) 13:38:38 435.225
PCSat 24 Apr 13:31:47 13:36:26 30° 252° (WSW) 13:41:04 145.827
ESTCUBE 1 24 Apr 13:37:37 13:39:01 11° 294° (WNW) 13:40:24 437.505/2401.250
50 SAT 24 Apr 13:39:38 13:43:00 48° 285° (WNW) 13:46:20 437.505
SPROUT 24 Apr 13:45:25 13:49:08 31° 288° (WNW) 13:52:52 437.525
Oscar 19 24 Apr 13:47:12 13:52:17 66° 258° (WSW) 13:57:27 437.125/150
VELOX 1 24 Apr 14:00:03 14:03:25 22° 291° (WNW) 14:06:47 145.980
RS-15 24 Apr 14:28:11 14:35:20 17° 27° (NNE) 14:42:20 29.354- 29.394
BEESAT 24 Apr 14:28:54 14:30:29 11° 93° (E) 14:32:03 436.000
UKube-1 24 Apr 14:31:43 14:35:40 36° 288° (WNW) 14:39:37 .
BEESAT 2 24 Apr 14:49:44 14:53:40 85° 114° (ESE) 14:57:40 435.950
BEESAT 3 24 Apr 14:57:16 15:00:35 26° 304° (NW) 15:03:59 437.485
AO-7 24 Apr 15:01:11 15:09:14 57° 68° (ENE) 15:17:17 .
DX 1 24 Apr 15:01:28 15:03:14 12° 294° (WNW) 15:04:59 434.975-435.025
ITUPSAT 1 24 Apr 15:05:28 15:09:42 31° 98° (E) 15:13:54 437.325
ITAMSAT 1 24 Apr 15:07:32 15:12:38 60° 74° (ENE) 15:17:45 435.822/435.867
Gurwin Techsat 1B 24 Apr 15:10:08 15:13:41 18° 266° (W) 15:17:14 435.225
Tancredo 1 24 Apr 15:27:29 15:29:40 17° 35° (NE) 15:31:49 437.200
ISS 24 Apr 15:30:44 15:32:49 16° 33° (NNE) 15:34:54 437.550
YUBILEINY 24 Apr 15:45:53 15:54:32 60° 81° (E) 16:03:10 435.215
SO-50 24 Apr 15:48:38 15:52:41 32° 56° (NE) 15:56:43 436.795
BEESAT 24 Apr 16:03:51 16:08:30 55° 286° (WNW) 16:13:09 436.000
MOZHAYETS 4 24 Apr 16:18:38 16:23:15 80° 282° (WNW) 16:27:52
RS-15 24 Apr 16:39:32 16:51:29 56° 55° (NE) 17:02:47 29.354- 29.394
ITUPSAT 1 24 Apr 16:43:41 16:47:17 22° 291° (WNW) 16:50:55 437.325
KKS-1 24 Apr 16:48:46 16:52:44 32° 98° (E) 16:56:41 437.445
ITAMSAT 1 24 Apr 16:50:16 16:52:24 12° 267° (W) 16:54:32 435.822/435.867
AO-7 24 Apr 16:55:40 17:02:15 26° 263° (W) 17:08:52 .
Tancredo 1 24 Apr 17:02:49 17:05:38 32° 229° (SW) 17:08:26 437.200
CUBESAT XI-V 24 Apr 17:03:13 17:07:46 47° 99° (E) 17:12:18 437.345
ISS 24 Apr 17:06:20 17:09:26 43° 228° (SW) 17:12:32 437.550
XW-2F 24 Apr 17:17:38 17:19:20 13° 69° (ENE) 17:21:03 145.980 - 146.000
STARS 24 Apr 17:27:09 17:31:10 36° 99° (E) 17:35:10 437.465
DOVE 4 24 Apr 17:27:45 17:32:42 42° 73° (ENE) 17:37:39 437.250
JUGNU 24 Apr 17:28:33 17:31:59 16° 166° (SSE) 17:35:25 437.505
SO-50 24 Apr 17:29:36 17:32:54 20° 250° (WSW) 17:36:11 436.795
NUDT-PHONESAT 24 Apr 17:35:29 17:37:58 18° 71° (ENE) 17:40:27 437.300
CUTE-I 24 Apr 17:38:06 17:42:45 31° 70° (ENE) 17:47:24 437.470
YUBILEINY 24 Apr 17:44:04 17:50:35 24° 277° (W) 17:57:09 435.215
XW-2D 24 Apr 18:03:30 18:07:10 60° 76° (ENE) 18:10:52 145.860 - 145.880
XW-2B 24 Apr 18:10:19 18:14:01 73° 78° (ENE) 18:17:46 145.730 - 145.750
LilacSat-2 24 Apr 18:18:33 18:22:17 78° 258° (WSW) 18:26:02 437.200
XW-2C 24 Apr 18:22:07 18:25:50 73° 259° (W) 18:29:34 145.795 - 145.815
KAITUO 1B 24 Apr 18:25:31 18:29:12 86° 258° (WSW) 18:32:54 145.475/437.950
KKS-1 24 Apr 18:26:01 18:29:00 18° 292° (WNW) 18:32:00 437.445
HO-68 24 Apr 18:32:17 18:38:22 31° 66° (ENE) 18:44:27 435.675
SEEDS 24 Apr 18:40:47 18:41:50 11° 67° (ENE) 18:42:53 437.485
CUBESAT XI-V 24 Apr 18:42:13 18:44:40 14° 293° (WNW) 18:47:08 437.345
XW-2F 24 Apr 18:49:51 18:53:09 30° 262° (W) 18:56:28 145.980 - 146.000
RS-15 24 Apr 18:52:48 19:03:21 38° 255° (WSW) 19:13:30 29.354- 29.394
CUBEBUG 2 24 Apr 18:57:01 18:59:00 13° 68° (ENE) 19:00:58 437.445
STARS 24 Apr 19:04:35 19:07:10 16° 292° (WNW) 19:09:45 437.465
DOVE 4 24 Apr 19:06:41 19:10:26 20° 266° (W) 19:14:12 437.250
NUDT-PHONESAT 24 Apr 19:08:53 19:11:42 21° 264° (W) 19:14:32 437.300
JUGNU 24 Apr 19:15:48 19:20:21 23° 176° (S) 19:24:56 437.505
CUTE-I 24 Apr 19:18:18 19:22:43 26° 263° (W) 19:27:09 437.470
M-CUBED/EXP-1 PRIME 24 Apr 19:18:58 19:21:21 15° 97° (E) 19:23:38 437.505
NO-84 24 Apr 19:39:06 19:42:54 69° 129° (SE) 19:46:23 435.350 FM
CUTE 1.7 + AOD 2 24 Apr 19:48:33 19:52:42 61° 260° (W) 19:56:52 437.475
ZACube-1 24 Apr 19:48:35 19:51:12 16° 70° (ENE) 19:53:48 437.345
AAUSAT CUBESAT 2 24 Apr 19:52:24 19:56:12 37° 74° (ENE) 20:00:03 437.432
XW-2A 24 Apr 19:53:32 19:56:41 37° 261° (W) 19:59:49 145.665 - 145.685
AO-73 24 Apr 19:56:33 19:59:24 18° 70° (ENE) 20:02:14 145.935
STRAND 1 24 Apr 19:57:53 20:02:56 63° 102° (ESE) 20:07:59 437.568
SEEDS 24 Apr 20:13:00 20:17:01 48° 261° (W) 20:21:05 437.485
Oscar 11 24 Apr 20:14:07 20:17:36 25° 71° (ENE) 20:21:06 .
HO-68 24 Apr 20:19:10 20:25:48 42° 260° (W) 20:32:31 435.675
UWE-3 24 Apr 20:22:21 20:26:42 82° 75° (ENE) 20:30:57 435.000/436.395/437.385
O/OREOS (USA 219) 24 Apr 20:23:32 20:27:33 30° 65° (ENE) 20:31:31 437.305
CUBEBUG 2 24 Apr 20:30:59 20:35:14 44° 261° (W) 20:39:23 437.445
SRMSAT 24 Apr 20:34:36 20:38:35 18° 169° (S) 20:42:34 437.500
M-CUBED/EXP-1 PRIME 24 Apr 20:52:12 20:55:52 31° 293° (WNW) 20:59:19 437.505
DELFI C3 24 Apr 20:57:15 21:00:09 20° 71° (ENE) 21:03:04 145.870
JUGNU 24 Apr 21:04:20 21:08:47 22° 186° (S) 21:13:15 437.505
NO-84 24 Apr 21:19:32 21:20:40 11° 322° (NW) 21:21:46 435.350 FM
ZACube-1 24 Apr 21:23:25 21:27:12 31° 262° (W) 21:30:58 437.345
AO-85 24 Apr 21:29:20 21:31:51 16° 53° (NE) 21:34:26 145.980
AAUSAT CUBESAT 2 24 Apr 21:29:55 21:31:46 13° 267° (W) 21:33:38 437.432
AO-73 24 Apr 21:31:46 21:35:24 28° 263° (W) 21:39:01 145.935
STRAND 1 24 Apr 21:39:22 21:41:32 13° 295° (WNW) 21:43:40 437.568
UNISAT 6 24 Apr 21:45:20 21:47:33 14° 94° (E) 21:49:46 437.425
Oscar 11 24 Apr 21:50:21 21:53:38 21° 264° (W) 21:56:56 .
PRISM 24 Apr 21:51:00 21:54:34 27° 98° (E) 21:58:04 437.425
O/OREOS (USA 219) 24 Apr 22:03:25 22:06:42 20° 259° (W) 22:09:57 437.305
OBJECT BX 24 Apr 22:09:20 22:12:54 56° 260° (W) 22:16:28 145.990 - 145.960
SRMSAT 24 Apr 22:22:30 22:27:10 24° 179° (S) 22:31:50 437.500
DELFI C3 24 Apr 22:31:35 22:34:45 23° 264° (W) 22:37:56 145.870
ESTCUBE 1 24 Apr 22:53:31 22:57:23 29° 71° (ENE) 23:01:17 437.505/2401.250
FO-29 24 Apr 22:53:55 22:59:07 62° 102° (ESE) 23:04:40 435.910
JUGNU 24 Apr 22:54:20 22:57:10 14° 196° (SSW) 23:00:00 437.505
TIGRISAT 24 Apr 22:59:31 23:03:47 75° 283° (WNW) 23:08:07 435.000
AO-85 24 Apr 23:08:34 23:12:17 35° 246° (WSW) 23:16:12 145.980
BEESAT 2 24 Apr 23:13:03 23:15:04 13° 51° (NE) 23:17:05 435.950
VELOX 1 24 Apr 23:17:29 23:19:50 14° 67° (ENE) 23:22:12 145.980
BEESAT 3 24 Apr 23:17:34 23:21:20 38° 58° (ENE) 23:25:03 437.485
LO-87 24 Apr 23:20:03 23:23:38 58° 260° (W) 23:27:13 145.935 - 145.965
UNISAT 6 24 Apr 23:20:23 23:24:21 37° 286° (WNW) 23:28:21 437.425
PRISM 24 Apr 23:26:44 23:29:36 18° 291° (WNW) 23:32:26 437.425
AIST 2D 24 Apr 23:44:19 23:47:42 42° 99° (E) 23:51:03 435.315
POLYITAN 1 24 Apr 23:57:27 00:01:10 30° 98° (E) 00:04:52 437.675
QB50P2 25 Apr 00:03:44 00:07:43 40° 99° (E) 00:11:40 145.880/145.840
50 SAT 25 Apr 00:08:10 00:11:03 25° 73° (ENE) 00:13:59 437.505
SRMSAT 25 Apr 00:11:30 00:15:44 20° 189° (S) 00:19:59 437.500
DX 1 25 Apr 00:14:45 00:18:14 23° 70° (ENE) 00:21:43 434.975-435.025
NANOSAT C BR1 25 Apr 00:27:35 00:31:45 68° 101° (E) 00:35:54 145.865
ESTCUBE 1 25 Apr 00:30:52 00:34:08 20° 265° (W) 00:37:27 437.505/2401.250
SPROUT 25 Apr 00:33:19 00:37:35 77° 258° (WSW) 00:41:52 437.525
BUGSAT 1 25 Apr 00:34:12 00:37:01 18° 96° (E) 00:39:50 437.445
FO-29 25 Apr 00:41:37 00:43:45 12° 295° (WNW) 00:45:55 435.910
BEESAT 2 25 Apr 00:49:10 00:53:03 45° 246° (WSW) 00:56:53 435.950
VELOX 1 25 Apr 00:51:39 00:55:52 42° 261° (W) 01:00:07 145.980
EO-79 25 Apr 00:54:11 00:58:14 48° 285° (WNW) 01:02:15 145.935-145.965
BEESAT 3 25 Apr 00:56:43 00:58:31 13° 252° (WSW) 01:00:19 437.485
DUCHIFAT 1 25 Apr 00:58:36 01:02:39 53° 285° (WNW) 01:06:43 145.980
UKube-1 25 Apr 01:20:54 01:25:14 81° 259° (W) 01:29:34 .
POLYITAN 1 25 Apr 01:33:59 01:36:40 17° 291° (WNW) 01:39:22 437.675
QB50P2 25 Apr 01:41:10 01:43:06 13° 292° (WNW) 01:45:02 145.880/145.840
50 SAT 25 Apr 01:42:24 01:43:59 13° 266° (W) 01:45:34 437.505
Gurwin Techsat 1B 25 Apr 01:49:49 01:54:11 25° 96° (E) 01:58:30 435.225
DX 1 25 Apr 01:50:43 01:54:15 24° 263° (W) 01:57:49 434.975-435.025
SRMSAT 25 Apr 02:02:46 02:04:15 11° 198° (SSW) 02:05:43 437.500
Oscar 19 25 Apr 02:03:16 02:08:27 64° 102° (ESE) 02:13:35 437.125/150
ITUPSAT 1 25 Apr 02:08:17 02:11:55 22° 69° (ENE) 02:15:33 437.325
BUGSAT 1 25 Apr 02:09:02 02:12:18 24° 289° (WNW) 02:15:33 437.445
PCSat 25 Apr 02:24:46 02:30:08 69° 113° (ESE) 02:35:32 145.827
YUBILEINY 25 Apr 02:52:25 02:54:03 11° 77° (ENE) 02:55:40 435.215
BEESAT 25 Apr 03:05:19 03:10:03 82° 256° (WSW) 03:14:50 436.000
AO-7 25 Apr 03:08:58 03:15:20 24° 97° (E) 03:21:40 .
MOZHAYETS 4 25 Apr 03:15:45 03:20:10 55° 75° (ENE) 03:24:37
ITAMSAT 1 25 Apr 03:25:20 03:29:52 30° 98° (E) 03:34:22 435.822/435.867
Gurwin Techsat 1B 25 Apr 03:29:24 03:34:03 32° 290° (WNW) 03:38:41 435.225
KKS-1 25 Apr 03:43:08 03:46:09 18° 68° (ENE) 03:49:10 437.445
Oscar 19 25 Apr 03:44:54 03:47:08 13° 296° (WNW) 03:49:22 437.125/150
ITUPSAT 1 25 Apr 03:45:23 03:49:32 30° 262° (W) 03:53:41 437.325
NO-84 25 Apr 03:54:27 03:57:13 49° 47° (NE) 04:00:00 435.350 FM
CUBESAT XI-V 25 Apr 04:02:16 04:06:10 27° 71° (ENE) 04:10:05 437.345
PCSat 25 Apr 04:11:01 04:14:01 15° 309° (NW) 04:17:01 145.827
STARS 25 Apr 04:19:57 04:23:05 19° 69° (ENE) 04:26:13 437.465
YUBILEINY 25 Apr 04:40:39 04:49:19 79° 94° (E) 04:58:01 435.215
MOZHAYETS 4 25 Apr 04:56:52 04:57:35 10° 268° (W) 04:58:18
AO-7 25 Apr 05:00:17 05:08:26 62° 291° (WNW) 05:16:35 .
ITAMSAT 1 25 Apr 05:04:57 05:09:09 26° 291° (WNW) 05:13:21 435.822/435.867
KKS-1 25 Apr 05:18:23 05:22:24 33° 262° (W) 05:26:28 437.445
DOVE 4 25 Apr 05:33:29 05:35:45 14° 92° (E) 05:37:59 437.250
CUBESAT XI-V 25 Apr 05:39:49 05:43:26 23° 264° (W) 05:47:05 437.345
XW-2B 25 Apr 05:49:44 05:50:35 11° 93° (E) 05:51:27 145.730 - 145.750
STARS 25 Apr 05:55:18 05:59:10 30° 262° (W) 06:03:03 437.465
LilacSat-2 25 Apr 05:57:18 05:59:36 15° 95° (E) 06:01:53 437.200
SO-50 25 Apr 05:58:29 06:02:31 30° 112° (ESE) 06:06:31 436.795
XW-2C 25 Apr 06:00:10 06:02:30 16° 95° (E) 06:04:51 145.795 - 145.815
CUTE-I 25 Apr 06:00:25 06:03:55 18° 94° (E) 06:07:23 437.470
M-CUBED/EXP-1 PRIME 25 Apr 06:00:41 06:02:39 13° 61° (ENE) 06:04:39 437.505
KAITUO 1B 25 Apr 06:02:46 06:04:29 13° 94° (E) 06:06:11 145.475/437.950
XW-2F 25 Apr 06:26:02 06:29:29 33° 98° (E) 06:32:57 145.980 - 146.000
YUBILEINY 25 Apr 06:41:35 06:46:57 18° 291° (WNW) 06:52:21 435.215
NUDT-PHONESAT 25 Apr 06:42:43 06:46:18 44° 100° (E) 06:49:52 437.300
RS-15 25 Apr 06:55:36 07:07:00 55° 109° (ESE) 07:18:48 29.354- 29.394
AO-7 25 Apr 06:58:24 06:59:32 10° 309° (NW) 07:00:40 .
STRAND 1 25 Apr 07:09:10 07:14:09 56° 74° (ENE) 07:19:08 437.568
DOVE 4 25 Apr 07:09:23 07:13:40 40° 287° (WNW) 07:17:42 437.250
XW-2D 25 Apr 07:14:22 07:18:01 44° 285° (WNW) 07:21:39 145.860 - 145.880
XW-2A 25 Apr 07:20:31 07:22:35 15° 95° (E) 07:24:40 145.665 - 145.685
XW-2B 25 Apr 07:21:21 07:24:53 37° 286° (WNW) 07:28:25 145.730 - 145.750
LilacSat-2 25 Apr 07:30:35 07:33:50 27° 287° (WNW) 07:37:06 437.200
M-CUBED/EXP-1 PRIME 25 Apr 07:32:02 07:36:29 60° 256° (WSW) 07:41:06 437.505
XW-2C 25 Apr 07:33:28 07:36:39 26° 287° (WNW) 07:39:51 145.795 - 145.815
KAITUO 1B 25 Apr 07:35:11 07:38:31 31° 286° (WNW) 07:41:52 145.475/437.950
CUTE 1.7 + AOD 2 25 Apr 07:38:01 07:41:50 31° 97° (E) 07:45:37 437.475
SO-50 25 Apr 07:39:11 07:42:56 24° 306° (NW) 07:46:39 436.795
